This is the latest recevied weather packets stored in our database for station/object JS2WAD-13. If no packets are shown the sender has not sent any weather packets the latest 10 day(s).
| Time | Temp. | Humidity | Pressure | Rain* | Wind** | Luminosity | Snow |
|---|---|---|---|---|---|---|---|
| 1777927285 | 11.67° C | 69% | 909.8 hPa | 0 mm | - | 14 W/m² | - |
| 1777926985 | 11.67° C | 69% | 909.6 hPa | 0 mm | - | 12 W/m² | - |
| 1777926685 | 11.67° C | 68% | 909.5 hPa | 0 mm | - | 11 W/m² | - |
| 1777926385 | 11.67° C | 65% | 909.4 hPa | 0 mm | - | 11 W/m² | - |
| 1777926085 | 11.67° C | 65% | 909.1 hPa | 0 mm | - | 9 W/m² | - |
| 1777925785 | 11.67° C | 64% | 909 hPa | 0 mm | - | 7 W/m² | - |
| 1777925485 | 11.67° C | 64% | 909 hPa | 0 mm | - | 5 W/m² | - |
| 1777925185 | 11.67° C | 65% | 908.8 hPa | 0 mm | - | 0 W/m² | - |
| 1777924885 | 11.67° C | 64% | 908.8 hPa | 0 mm | - | 0 W/m² | - |
| 1777924585 | 11.67° C | 65% | 908.7 hPa | 0 mm | - | 0 W/m² | - |
| 1777924285 | 11.67° C | 64% | 908.7 hPa | 0 mm | - | 0 W/m² | - |
| 1777923985 | 11.67° C | 67% | 908.7 hPa | 0 mm | - | 0 W/m² | - |
| 1777923685 | 11.67° C | 66% | 908.6 hPa | 0 mm | - | 0 W/m² | - |
| 1777923385 | 11.67° C | 64% | 908.6 hPa | 0 mm | - | 0 W/m² | - |
| 1777923085 | 11.67° C | 64% | 908.6 hPa | 0 mm | - | 0 W/m² | - |
| 1777922785 | 12.22° C | 65% | 908.5 hPa | 0 mm | - | 0 W/m² | - |
| 1777922485 | 12.22° C | 64% | 908.5 hPa | 0 mm | - | 0 W/m² | - |
| 1777922185 | 12.22° C | 66% | 908.5 hPa | 0 mm | - | 0 W/m² | - |
| 1777921885 | 12.22° C | 68% | 908.4 hPa | 0 mm | - | 0 W/m² | - |
| 1777921585 | 12.22° C | 66% | 908.4 hPa | 0 mm | - | 0 W/m² | - |
| 1777921285 | 12.22° C | 69% | 908.4 hPa | 0 mm | - | 0 W/m² | - |
| 1777920985 | 12.22° C | 68% | 908.4 hPa | 0 mm | - | 0 W/m² | - |
| 1777920685 | 12.22° C | 67% | 908.3 hPa | 0 mm | - | 0 W/m² | - |
| 1777920385 | 12.22° C | 66% | 908.2 hPa | 0 mm | - | 0 W/m² | - |
| 1777920085 | 12.22° C | 70% | 908.2 hPa | 0 mm | - | 0 W/m² | - |
* Rain latest hour (hover to see other rain measurements)
** Current wind speed in m/s (hover to see current wind gust speed)